{"data":{"norad_id":63988,"epoch":"2026-05-25T04:18:21.639168Z","epoch_age_seconds":49777,"freshness":"FRESH","line1":"1 63988U 25100G   26145.17941712  .00004327  00000+0  16858-3 0  9998","line2":"2 63988  97.3701 220.4852 0013443  33.9181 326.2915 15.26420628 57259","mean_motion":15.26420628,"eccentricity":0.0013443,"inclination_deg":97.3701,"raan_deg":220.4852,"arg_perigee_deg":33.9181,"mean_anomaly_deg":326.2915,"bstar":0.00016858,"rev_number":5725,"period_min":94.338347738838,"perigee_km":477.29470776497,"apogee_km":495.75103229153,"semimajor_km":6864.6598700283,"source":"CELESTRAK","updated_at":"2026-05-25T13:38:04.148213Z"}}